Weather History for Pensacola NAS, FL

Change the Weather History Date:

Friday, January 25, 2013

  Actual Average Record
Temperature  
Mean Temperature 56 °F -  
Max Temperature 69 °F 59 °F 55 °F (2014)
Min Temperature 44 °F 42 °F 34 °F (2014)
Degree Days  
Heating Degree Days 8    
Growing Degree Days 6 (Base 50)    
Moisture  
Dew Point 51 °F    
Average Humidity 95    
Maximum Humidity 100    
Minimum Humidity 58    
Precipitation  
Precipitation 0.00 in - - ()
Sea Level Pressure  
Sea Level Pressure 30.24 in    
Wind  
Wind Speed 1 mph (SSW)    
Max Wind Speed 13 mph    
Max Gust Speed -    
Visibility 4 miles    
Events Fog , Rain    
Averages and records for this station are not official NWS values.
T = Trace of Precipitation, MM = Missing Value Source: NWS Daily Summary

Daily Weather History Graph

Daily Weather History Graph

Search for Another Location

Airport:

Trip Planner

Search our weather history database for the weather conditions in past years. The results will help you decide how hot, cold, wet, or windy it might be!

Date:

Astronomy

Jan. 25, 2013 Rise Set
Actual Time 6:43 AM CST 5:20 PM CST
Civil Twilight 6:18 AM CST 5:45 PM CST
Nautical Twilight 5:49 AM CST 6:14 PM CST
Astronomical Twilight 5:20 AM CST 6:43 PM CST
Moon 4:16 PM CST (1/25) 5:22 AM CST (1/25)
Length of Visible Light 11h 27m
Length of Day
10h 36m
Waxing Gibbous, 98% of the Moon is Illuminated
Jan 25
Waxing Gibbous
Jan 26
Full
Feb 3
Last Quarter
Feb 10
New
Feb 17
First Quarter

Hourly Weather History & Observations

Time (CST) Temp. Windchill Dew Point Humidity Pressure Visibility Wind Dir Wind Speed Gust Speed Precip Events Conditions
12:08 AM 51.8 °F - 51.8 °F 100% 30.27 in 1.8 mi Calm Calm - N/A   Clear
12:20 AM 51.8 °F - 51.8 °F 100% 30.27 in 3.0 mi Calm Calm - N/A   Clear
12:56 AM 51.1 °F - 51.1 °F 100% 30.28 in 5.0 mi Calm Calm - 0.00 in   Clear
1:07 AM 50.0 °F - 50.0 °F 100% 30.28 in 2.0 mi Calm Calm - N/A   Partly Cloudy
1:10 AM 50.0 °F - 50.0 °F 100% 30.28 in 1.0 mi Calm Calm - N/A   Mist
1:17 AM 50.0 °F - 50.0 °F 100% 30.27 in 0.5 mi Calm Calm - N/A Fog Fog
1:43 AM 48.2 °F - 48.2 °F 100% 30.27 in 1.0 mi Calm Calm - N/A   Clear
1:46 AM 48.2 °F - 48.2 °F 100% 30.27 in 0.5 mi Calm Calm - N/A Fog Fog
1:56 AM 48.0 °F - 48.0 °F 100% 30.27 in 0.2 mi Calm Calm - 0.00 in Fog , Rain Light Rain
2:56 AM 46.9 °F - 46.9 °F 100% 30.26 in 0.2 mi Calm Calm - 0.00 in Fog Fog
3:06 AM 46.4 °F - 46.4 °F 100% 30.25 in 1.0 mi Calm Calm - N/A   Mist
3:09 AM 46.4 °F - 46.4 °F 100% 30.25 in 3.0 mi Calm Calm - N/A   Mostly Cloudy
3:27 AM 48.2 °F - 48.2 °F 100% 30.24 in 0.8 mi Calm Calm - N/A   Mist
3:37 AM 48.2 °F - 48.2 °F 100% 30.24 in 0.2 mi Calm Calm - 0.00 in Fog , Rain Light Rain
3:56 AM 48.0 °F - 48.0 °F 100% 30.25 in 0.2 mi Calm Calm - 0.00 in Fog Fog
4:04 AM 46.4 °F - 46.4 °F 100% 30.24 in 0.5 mi Calm Calm - N/A Fog Fog
4:28 AM 46.4 °F - 46.4 °F 100% 30.24 in 1.0 mi Calm Calm - N/A   Clear
4:33 AM 46.4 °F - 46.4 °F 100% 30.24 in 3.0 mi Calm Calm - N/A   Clear
4:49 AM 44.6 °F - 44.6 °F 100% 30.24 in 5.0 mi Calm Calm - N/A   Scattered Clouds
4:56 AM 45.0 °F - 45.0 °F 100% 30.25 in 7.0 mi Calm Calm - N/A   Mostly Cloudy
5:25 AM 44.6 °F - 44.6 °F 100% 30.26 in 1.8 mi Calm Calm - N/A   Mostly Cloudy
5:44 AM 46.4 °F - 46.4 °F 100% 30.26 in 2.0 mi Calm Calm - N/A   Mostly Cloudy
5:48 AM 46.4 °F - 46.4 °F 100% 30.26 in 4.0 mi Calm Calm - N/A   Scattered Clouds
5:56 AM 46.0 °F - 46.0 °F 100% 30.27 in 4.0 mi Calm Calm - N/A   Scattered Clouds
6:34 AM 46.4 °F 45.2 °F 46.4 °F 100% 30.28 in 0.5 mi NE 3.5 mph - N/A Fog Fog
6:42 AM 46.4 °F - 46.4 °F 100% 30.28 in 1.0 mi Calm Calm - N/A   Mostly Cloudy
6:56 AM 46.9 °F - 46.9 °F 100% 30.29 in 1.0 mi Calm Calm - N/A   Mostly Cloudy
7:06 AM 44.6 °F - 44.6 °F 100% 30.29 in 0.5 mi Calm Calm - N/A   Mostly Cloudy
7:38 AM 53.6 °F - 53.6 °F 100% 30.29 in 1.0 mi Calm Calm - N/A   Mostly Cloudy
7:56 AM 55.9 °F - 55.9 °F 100% 30.30 in 3.0 mi ENE 4.6 mph - N/A   Mostly Cloudy
8:56 AM 60.1 °F - 57.9 °F 93% 30.31 in 10.0 mi East 4.6 mph - N/A   Mostly Cloudy
9:56 AM 64.9 °F - 57.9 °F 78% 30.32 in 10.0 mi Variable 3.5 mph - N/A   Clear
10:56 AM 66.0 °F - 59.0 °F 78% 30.28 in 10.0 mi SE 9.2 mph - N/A   Scattered Clouds
11:56 AM 68.0 °F - 57.9 °F 70% 30.25 in 10.0 mi SSE 10.4 mph - N/A   Scattered Clouds
12:56 PM 69.1 °F - 57.9 °F 68% 30.22 in 10.0 mi SSW 8.1 mph - N/A   Mostly Cloudy
1:56 PM 69.1 °F - 54.0 °F 58% 30.21 in 10.0 mi SSW 11.5 mph - N/A   Mostly Cloudy
2:56 PM 69.1 °F - 54.0 °F 58% 30.21 in 10.0 mi SSW 12.7 mph - N/A   Mostly Cloudy
3:56 PM 66.9 °F - 55.9 °F 68% 30.20 in 10.0 mi SW 6.9 mph - N/A   Scattered Clouds
4:56 PM 64.0 °F - 57.0 °F 78% 30.20 in 10.0 mi SW 5.8 mph - N/A   Scattered Clouds
5:56 PM 60.1 °F - 57.9 °F 93% 30.19 in 10.0 mi SSW 6.9 mph - N/A   Scattered Clouds
6:56 PM 59.0 °F - 57.9 °F 96% 30.19 in 10.0 mi SW 6.9 mph - N/A   Scattered Clouds
7:56 PM 60.1 °F - 57.9 °F 93% 30.18 in 10.0 mi SW 4.6 mph - N/A   Scattered Clouds
8:56 PM 55.9 °F - 55.9 °F 100% 30.20 in 9.0 mi Calm Calm - N/A   Scattered Clouds
9:27 PM 53.6 °F - 53.6 °F 100% 30.20 in 2.0 mi Calm Calm - N/A   Clear
9:36 PM 55.4 °F - 55.4 °F 100% 30.20 in 9.0 mi SW 3.5 mph - N/A   Clear
9:56 PM 53.1 °F - 53.1 °F 100% 30.21 in 10.0 mi Calm Calm - 0.00 in   Clear
10:28 PM 53.6 °F - 53.6 °F 100% 30.21 in 1.5 mi Calm Calm - N/A   Clear
10:30 PM 53.6 °F - 53.6 °F 100% 30.21 in 0.5 mi Calm Calm - N/A Fog Fog
10:56 PM 52.0 °F - 52.0 °F 100% 30.21 in 0.2 mi Calm Calm - N/A Fog Fog
11:13 PM 51.8 °F - 51.8 °F 100% 30.21 in 0.5 mi SW 3.5 mph - 0.00 in Fog Fog
11:20 PM 51.8 °F - 51.8 °F 100% 30.21 in 0.5 mi SW 3.5 mph - 0.00 in Fog Fog
11:26 PM 53.6 °F - 53.6 °F 100% 30.21 in 2.0 mi SW 3.5 mph - 0.00 in   Clear
11:34 PM 53.6 °F - 53.6 °F 100% 30.21 in 7.0 mi SW 3.5 mph - 0.00 in   Clear
11:56 PM 54.0 °F - 54.0 °F 100% 30.21 in 10.0 mi SW 3.5 mph - 0.00 in   Clear